Flag for Germany Weather past 2 weeks in Munich, Bavaria, Germany

Now
45 °F

Clear.


Feels Like: 45 °F
Forecast: 48 / 63 °F
Wind: 1 mph from North

Location: Munich / Franz Josef Strauss Airport

Current Time: May 23, 2015 at 4:08:32 AM

Latest Report: May 23, 2015 at 3:20 AM


Visibility: 10 mi

Pressure: 30.12 "Hg

Humidity: 93%

Dew point: 43 °F

Location of MunichLocation

Historic Weather in Munich — Graph

°F

Munich temperature yesterday

Maximum temperature yesterday: 59 °F (at 2:50 PM)
Minimum temperature yesterday: 43 °F (at 4:20 AM)
Average temperature yesterday: 51 °F

Past Weeks' High & Low Weather Summary

 TemperatureHumidityPressure
High81 °F (May 12, 3:50 PM)100% (May 11, 5:20 AM)30.36 "Hg (May 11, 5:20 AM)
Low41 °F (May 11, 5:20 AM)28% (May 12, 4:20 PM)29.74 "Hg (May 18, 7:50 PM)
Average57 °F77%30.09 "Hg
* Reported May 8 2:20 AM — May 23 2:50 AM, Munich, Weather by CustomWeather, © 2015

Note: Actual official high and low records may vary slightly from our data, if they occured in-between our weather recording intervals... More about our weather records

Advertising

Munich weather history for previous 24 hours

 ConditionsComfort  
Time TempWeatherWind HumidityBarometerVisibility
2:50 AM
Sat, May 23
46 °FClear.3 mph87%30.12 "Hg10 mi
2:20 AM46 °FClear.3 mph93%30.15 "Hg10 mi
1:50 AM46 °FPassing clouds.3 mph87%30.15 "HgN/A
1:20 AM48 °FPassing clouds.3 mph87%30.15 "HgN/A
12:50 AM50 °FClear.3 mph82%30.15 "Hg10 mi
12:20 AM50 °FClear.3 mph88%30.15 "Hg10 mi
11:50 PM
Fri, May 22
50 °FClear.5 mph88%30.18 "Hg10 mi
11:20 PM50 °FPassing clouds.5 mph88%30.18 "HgN/A
10:50 PM52 °FClear.3 mph82%30.18 "Hg10 mi
10:20 PM52 °FPassing clouds.5 mph88%30.18 "HgN/A
9:50 PM52 °FSunny.5 mph88%30.18 "Hg10 mi
9:20 PM54 °FSunny.8 mph82%30.18 "Hg10 mi
8:50 PM54 °FSunny.6 mph82%30.18 "Hg10 mi
8:20 PM54 °FSunny.5 mph77%30.18 "Hg10 mi
7:50 PM55 °FBroken clouds.5 mph72%30.18 "HgN/A
7:20 PM55 °FPartly sunny.7 mph72%30.18 "HgN/A
6:50 PM55 °FPartly sunny.10 mph77%30.18 "HgN/A
6:20 PM57 °FBroken clouds.7 mph59%30.18 "HgN/A
5:50 PM57 °FBroken clouds.7 mph48%30.18 "HgN/A
5:20 PM59 °FPassing clouds.7 mph48%30.18 "HgN/A
4:50 PM59 °FPassing clouds.7 mph48%30.18 "HgN/A
4:20 PM59 °FBroken clouds.8 mph48%30.18 "HgN/A
3:50 PM57 °FBroken clouds.7 mph55%30.21 "HgN/A
3:20 PM57 °FBroken clouds.6 mph55%30.21 "HgN/A
2:50 PM59 °FBroken clouds.7 mph51%30.21 "HgN/A
2:20 PM57 °FBroken clouds.8 mph55%30.24 "HgN/A
1:50 PM57 °FBroken clouds.8 mph48%30.24 "HgN/A
1:20 PM57 °FPartly sunny.7 mph51%30.24 "HgN/A
12:50 PM57 °FPartly sunny.9 mph59%30.24 "HgN/A
12:20 PM55 °FBroken clouds.7 mph59%30.27 "HgN/A
11:50 AM55 °FBroken clouds.7 mph67%30.27 "HgN/A
11:20 AM55 °FBroken clouds.7 mph72%30.27 "HgN/A
10:50 AM55 °FPartly sunny.6 mph77%30.27 "HgN/A
10:20 AM54 °FPassing clouds.5 mph77%30.27 "HgN/A
9:50 AM50 °FPassing clouds.6 mph88%30.27 "HgN/A
9:20 AM50 °FPassing clouds.5 mph88%30.27 "HgN/A
8:50 AM48 °FPassing clouds.6 mph87%30.27 "HgN/A
8:20 AM46 °FPassing clouds.5 mph93%30.27 "HgN/A
7:50 AM46 °FPassing clouds.3 mph93%30.27 "HgN/A
7:20 AM46 °FClear.2 mph93%30.27 "Hg4 mi
6:50 AM45 °FClear.2 mph100%30.27 "Hg4 mi
6:20 AM43 °FFog.No wind100%30.27 "Hg3 mi
5:50 AM43 °FQuite cool.No wind100%30.27 "Hg3 mi
5:20 AM43 °FQuite cool.2 mph100%30.27 "Hg1 mi
4:50 AM43 °FQuite cool.2 mph100%30.27 "Hg1 mi
4:20 AM43 °FQuite cool.2 mph100%30.30 "Hg2 mi
Weather by CustomWeather, © 2015

See weather overviewHow to use our weather pages